User: anonymous   Login
Location: Ferma
(41.9500°N, 44.5167°E)
Time: 05:49:15
(UTC+00:00)
Language:

Cosmos 2228 - Orbit

View from above orbital plane
View from above orbital plane
View from above satellite
View from above satellite

Ground track
Ground track

The orbit data is extracted from the following two-line orbital elements,

1 22286U 92094A   22021.56682094  .00000511  00000-0  52316-4 0  9999
2 22286  82.5183 229.5036 0019880 306.7069  53.2322 14.88429494551172
Epoch (UTC): 21 January 2022 13:36:13
Eccentricity: 0.0019880
inclination: 82.5183°
perigee height: 589 km
apogee height: 617 km
right ascension of ascending node: 229.5036°
argument of perigee: 306.7069°
revolutions per day: 14.88429494
mean anomaly at epoch: 53.2322°
orbit number at epoch: 55117

The dashed part of the orbit path shows where the satellite is in the earth's shadow,  

DLR